Location: Forest Hill
(32.6721°N, 97.2692°W)
Time: 05:07:49
(UTC+00:00)

Daily predictions for brighter satellites

Satellite Brightness Start Highest point End
(mag) Time Altitude Azimuth Time Altitude Azimuth Time Altitude Azimuth
CZ-3B R/B 4.0 01:17:14 10° WNW 01:21:16 52° SW 01:33:45 10° SSE
CZ-4B R/B 3.7 01:17:23 10° S 01:22:23 77° WSW 01:27:17 10° NNW
APEX 2.7 01:21:31 10° NNW 01:24:39 56° ENE 01:27:33 10° SSE
CZ-4B R/B 4.2 01:24:04 10° SE 01:28:47 28° ENE 01:33:28 10° NNE
Cosmos 1674 Rocket 3.7 01:27:17 10° N 01:31:39 54° E 01:35:59 10° SSE
Cosmos 1825 3.5 01:29:22 10° NNE 01:31:51 18° ENE 01:34:20 10° SE
USA 234 4.1 01:28:51 10° E 01:34:40 36° NE 01:40:29 10° NNW
NOSS 3-1 (C) 3.4 01:30:48 10° S 01:34:56 34° ESE 01:39:31 10° NE
Meteor 2-11 Rocket 4.4 01:30:47 10° N 01:36:51 71° E 01:42:53 10° SSE
Hubble Space Telescope 1.3 01:34:41 10° WSW 01:38:27 40° S 01:41:39 13° ESE
Cosmos 2082 Rocket 3.1 01:33:45 10° NNW 01:39:17 52° WSW 01:44:45 10° S
Resurs 1-3 3.8 01:37:30 10° SSE 01:41:42 51° ENE 01:45:55 10° N
[s.n.70599] 2.4 01:41:59 10° NW 01:44:29 63° NNE 01:46:04 19° ESE
IKONOS-2 4.4 01:45:31 10° NNE 01:49:44 81° ESE 01:53:55 10° S
Okean O Rocket 2.8 01:49:28 16° ESE 01:51:46 24° ENE 01:55:14 10° NNE
Cosmos 1025 Rocket 3.8 01:48:33 10° NNE 01:52:28 32° E 01:55:30 15° SE
ATLAS 3B R/B 3.3 01:50:13 10° S 01:56:07 32° ESE 02:02:23 10° NE
Resurs 01 Rocket 2.6 01:55:01 18° ESE 01:57:22 28° ENE 02:01:09 10° NNE
YAOGAN 1 4.3 01:53:50 10° SSW 01:57:45 34° W 02:01:40 10° NNW
Cosmos 2218 Rocket 4.4 01:52:14 10° N 01:58:15 42° E 02:03:55 11° SSE
Cosmos 1346 Rocket 2.6 01:56:20 10° S 02:00:09 75° E 02:03:58 10° NNE
SJ-6B 2.8 01:58:03 10° S 02:01:58 84° W 02:05:56 10° NNW
USA 281 4.1 01:59:34 17° ESE 02:03:21 30° ENE 02:08:52 10° N
Cosmos 1975 Rocket 4.2 02:01:06 10° NNE 02:04:32 23° ENE 02:05:12 22° E
Cosmos 1302 Rocket 4.1 01:59:45 10° SSW 02:05:01 80° WNW 02:10:18 10° NNE
Cosmos 1328 3.8 02:06:14 10° N 02:09:54 50° E 02:11:47 26° SE
OAO 3 Rocket 3.5 02:05:29 10° W 02:10:20 66° N 02:13:29 22° E
Cosmos 1782 Rocket 3.4 02:09:23 10° S 02:13:42 82° E 02:18:06 10° N
Meteor 1-21 Rocket 4.4 02:09:55 10° N 02:15:46 58° E 02:20:11 18° SSE
PAYLOAD B 4.4 02:10:34 10° S 02:16:04 75° WSW 02:21:38 10° NNW
USA 186 1.5 02:16:17 35° SSE 02:17:26 77° ENE 02:20:29 10° N
DELTA 2 R/B (1) 3.6 02:11:48 10° WNW 02:17:26 79° NNE 02:20:22 29° ESE
Cosmos 1892 2.8 02:14:57 10° NNW 02:18:28 65° W 02:21:37 12° S
CZ-4 R/B 2.1 02:18:22 10° S 02:22:15 50° W 02:26:05 10° NNW
ATLAS 5 CENTAUR R/B 0.6 02:19:03 10° SSW 02:22:21 73° ESE 02:25:44 10° NE
Delta 2 Rocket 4.4 02:17:31 10° WSW 02:24:08 49° S 02:26:51 30° SE
Cosmos 1455 3.1 02:22:57 10° SSW 02:26:22 45° W 02:29:47 10° N
Cosmos 864 Rocket 4.4 02:22:18 10° N 02:28:33 79° E 02:34:03 14° S
Cosmos 968 Rocket 3.5 02:23:42 10° NNW 02:28:49 80° WSW 02:32:17 21° S
Feng Yun 1-1 Rocket 4.2 02:28:09 17° SSE 02:32:25 88° WSW 02:38:01 10° NNW
CSL-04 Debris 4.1 02:34:11 21° SSE 02:37:54 86° WSW 02:43:22 10° NNW
Cosmos 1300 Rocket 4.0 02:35:52 10° SSW 02:40:09 60° W 02:44:29 10° N
CSL-04 Rocket 3.8 02:45:00 25° S 02:48:22 75° WSW 02:53:53 10° NNW
Timation 1 Rocket 4.5 02:42:53 10° NNW 02:48:48 71° WSW 02:51:45 31° S
In-Cosmos 22 Rocket 4.0 02:48:06 10° N 02:53:33 77° E 02:54:49 54° SSE
SJ 16-02 1.2 02:49:26 10° NNW 02:53:45 78° WSW 02:54:06 71° SSW
CZ-4C R/B 4.0 02:54:03 10° N 02:56:35 42° NNW 02:56:35 42° NNW
NOSS 3-1 (A) 2.8 02:57:05 10° SSW 03:01:45 87° WNW 03:07:06 10° NNE
Cosmos 2098 Rocket 4.2 02:57:09 10° SSW 03:02:46 54° W 03:07:28 10° N
Okean-O 2.8 03:06:02 65° N 03:06:02 65° N 03:09:50 10° N
Terra 3.8 03:09:26 17° NNE 03:09:26 17° NNE 03:10:57 10° NNE
Atlas Centaur 2 3.9 03:04:42 10° SW 03:05:22 13° SW 03:05:22 13° SW
USA 234 3.5 03:15:42 46° S 03:17:24 58° SW 03:23:50 10° NW
Hubble Space Telescope 2.9 03:15:05 10° WSW 03:16:32 20° WSW 03:16:32 20° WSW
Cosmos 1833 4.2 03:14:08 10° NNW 03:19:45 74° WSW 03:19:59 73° SW
Milstar 3 4.4 03:17:14 10° WSW 03:27:53 72° S 03:37:38 36° E
Okean O Rocket 3.6 03:26:49 21° WSW 03:27:54 23° W 03:31:21 10° NW
Resurs 01 Rocket 3.9 03:32:30 17° WSW 03:33:46 19° W 03:36:57 10° NW
ATLAS 3B R/B 3.8 03:40:02 10° SW 03:46:34 43° NW 03:53:35 10° NNE
USA 281 3.9 03:46:26 41° SW 03:47:32 44° WSW 03:53:46 10° NW
Centaur D-1AR AC-36 4.0 03:47:17 10° WSW 04:13:23 20° E 04:39:59 10° E
Centaur D-1AR AC-36 4.0 03:47:17 10° WSW 04:13:23 20° E 04:40:00 10° E
SPOT 5 4.5 04:03:53 36° WNW 04:03:53 36° WNW 04:07:30 10° NNW
Cosmos 2297 Rocket 4.4 04:39:43 10° NNW 04:41:24 20° N 04:41:24 20° N
Resurs 1-4 Rocket 4.3 08:28:33 10° N 08:30:10 20° N 08:30:10 20° N
H-2A R/B 4.3 08:46:24 38° SE 08:46:24 38° SE 09:05:14 10° ESE
Cosmos 2219 Rocket 4.3 08:55:50 17° NNW 08:55:50 17° NNW 08:57:26 10° N
Cosmos 2278 Rocket 4.3 08:48:31 10° N 08:52:56 23° ENE 08:57:19 10° ESE
SL-16 R/B 4.5 09:03:21 13° ESE 09:05:18 16° E 09:08:34 10° ENE
CZ-2C R/B 4.2 09:09:20 10° NE 09:13:37 26° E 09:14:38 24° ESE
BREEZE-M DEB (TANK) 4.1 09:13:45 72° W 09:14:39 81° NW 09:40:14 10° NE
Meteor 1-19 Rocket 4.5 09:20:01 69° NNE 09:20:01 69° NNE 09:25:17 10° N
ADEOS II 3.7 09:15:12 10° N 09:17:38 26° NNW 09:17:38 26° NNW
Cosmos 1092 Rocket 3.9 09:24:59 76° ESE 09:25:07 77° E 09:31:15 10° N
Cosmos 2026 Rocket 3.9 09:32:11 81° S 09:32:32 88° E 09:38:54 10° N
CZ-2D R/B 4.2 09:29:18 10° NNW 09:30:50 16° NNW 09:30:50 16° NNW
BREEZE-M DEB (TANK) 3.6 09:34:04 61° NW 09:34:06 61° NW 09:37:43 10° NE
Envisat 3.4 09:29:39 10° NNE 09:34:39 57° E 09:34:51 57° ESE
SL-16 R/B 2.7 09:36:56 57° NW 09:36:56 57° NW 09:42:03 10° NNW
EO 1 Delta rocket 4.2 09:38:06 10° N 09:41:50 59° N 09:41:50 59° N
Meteor 1-27 Rocket 4.1 09:46:40 49° NW 09:46:40 49° NW 09:51:29 10° N
Meteor 2-4 Rocket 3.9 09:48:37 43° SSE 09:50:15 64° E 09:55:39 10° NNE
CZ-4 R/B 4.0 09:45:56 10° N 09:49:59 62° NNW 09:49:59 62° NNW
Cosmos 1943 Rocket 3.5 09:46:58 10° N 09:52:17 40° ENE 09:57:34 10° SE
Thor Agena Rocket 3.8 09:47:26 10° NNE 09:52:26 62° ESE 09:53:50 44° SSE
Cosmos 1627 Rocket 4.4 09:53:01 60° WSW 09:53:35 62° W 09:59:52 10° N
YAOGAN 6 4.1 09:50:58 10° NNE 09:53:02 32° NE 09:53:02 32° NE
H-2A R/B 4.4 09:52:36 10° NE 09:56:09 19° E 09:59:44 10° SE
Cosmos 2237 Rocket 2.7 09:58:31 41° WNW 09:58:31 41° WNW 10:03:38 10° N
Cosmos 1980 4.4 09:59:54 37° WNW 09:59:54 37° WNW 10:04:50 10° N
NOAA 11 4.1 09:55:09 10° NNE 10:00:37 88° ESE 10:02:18 46° S
Cosmos 2112 Rocket 3.9 10:01:07 66° WSW 10:01:42 74° WNW 10:07:03 10° NNE
Cosmos 1340 Rocket 3.4 10:04:12 45° N 10:04:12 45° N 10:07:00 10° N
ALOS 3.9 10:00:04 10° NNW 10:02:16 21° NW 10:02:16 21° NW
Cosmos 1867 3.4 10:00:41 10° NW 10:06:07 65° WSW 10:11:28 10° SSE
Cosmos 1328 Rocket 3.5 10:08:29 59° S 10:09:19 86° E 10:13:45 10° N
ATLAS 2AS CENTAUR R/B 2.8 10:07:19 37° SSW 10:10:43 85° WNW 10:18:02 10° NNE
Cosmos 1805 3.1 10:09:39 10° N 10:13:22 79° E 10:13:52 64° SSE
Delta 128 3.9 10:17:14 44° S 10:17:16 44° S 10:21:34 10° ESE
Meteor 2-9 Rocket 4.4 10:12:25 10° NNW 10:17:29 42° W 10:17:39 42° W
Chandra Rocket (1) 2.4 10:18:55 37° SSE 10:18:55 37° SSE 10:23:55 10° E
IRS-1D 3.5 10:18:39 10° N 10:23:44 68° WNW 10:26:05 32° SSW
Cosmos 1633 Rocket 3.2 10:19:40 10° N 10:24:00 71° E 10:28:19 10° SSE
CSL-04 DEB 4.3 10:19:57 10° N 10:24:08 81° WNW 10:25:35 40° SSW
Cosmos 2266 Rocket 4.3 10:22:01 10° S 10:28:03 65° E 10:34:02 10° NNE
Cosmos 1680 Rocket 4.3 10:28:09 31° W 10:28:53 33° WNW 10:33:38 10° N
ASC 2 Rocket 4.3 10:32:35 27° SSW 10:34:07 32° S 10:39:38 10° ESE
Iridium 51 3.7 10:33:29 29° S 10:35:05 88° W 10:38:26 10° N
Cosmos 2278 Rocket 2.5 10:31:49 10° NW 10:37:06 41° WSW 10:42:21 10° S
NOSS 2-2 (C) 4.4 10:32:53 10° NNW 10:38:07 88° WSW 10:45:38 10° SSE
Cosmos 1461 2.8 10:38:34 10° NW 10:42:14 48° WSW 10:45:53 10° S
USA 308 3.0 10:41:22 35° W 10:42:22 45° NW 10:46:08 10° NNE
Cosmos 1674 3.3 10:39:52 10° S 10:43:11 49° E 10:46:30 10° NNE
Delta 2 Rocket 4.4 10:40:59 24° SSW 10:43:31 44° SSE 10:48:00 10° E
Cosmos 1420 Rocket 3.9 10:38:16 10° NNW 10:43:33 78° WSW 10:48:48 10° S
Cosmos 494 Rocket 3.9 10:42:25 18° SSW 10:46:13 69° WNW 10:51:21 10° N
ATLAS 5 CENTAUR R/B 3.2 10:42:33 21° WSW 10:46:45 28° SSW 10:50:44 10° SE
Cosmos 2056 Rocket 3.5 10:42:08 10° NNW 10:47:33 86° WSW 10:52:57 10° SSE
SL-16 R/B 2.4 10:45:15 22° SW 10:48:50 54° WNW 10:54:23 10° N
Cosmos 2344 4.5 10:41:09 10° NW 10:50:35 61° WSW 11:03:54 10° S
Sakura Rocket 4.0 10:50:19 20° SSW 10:50:37 20° SSW 10:53:29 10° SSE
CZ-2C R/B 3.4 10:47:11 10° N 10:51:38 30° WNW 10:53:57 21° WSW
Cosmos 1626 2.6 10:51:52 29° W 10:52:15 30° W 10:55:12 10° NNW
Cosmos 1766 3.3 10:49:43 10° N 10:53:25 73° E 10:57:04 10° SSE
Cosmos 1939 Rocket 3.7 10:50:16 10° NNE 10:53:55 48° E 10:57:35 10° S
Cosmos 921 Rocket 4.1 10:53:25 22° W 10:54:28 24° WNW 10:58:00 10° NNW
KORONAS-FOTON 4.1 10:51:40 10° S 10:55:17 64° E 10:58:55 10° NNE
Cosmos 1340 2.9 10:52:21 10° NNW 10:55:34 38° W 10:58:35 11° SSW
Cosmos 1553 Rocket 4.2 10:51:55 10° NNW 10:57:53 49° W 11:03:45 10° SSW
Cosmos 1515 Rocket 3.7 10:54:46 10° SSW 10:59:07 55° W 11:03:29 10° N
Cosmos 1624 Rocket 3.9 10:54:42 10° NNW 10:59:52 65° WSW 11:04:58 10° S
Cosmos 1975 3.6 10:56:55 10° NNW 11:00:13 27° W 11:02:30 16° SW
ASTRO E2 3.2 11:00:59 20° SW 11:03:01 39° SSE 11:06:21 10° E
Cosmos 1484 Rocket 2.7 11:05:17 10° N 11:08:47 52° WNW 11:12:14 10° SSW
Cosmos 1470 Rocket 3.7 11:05:54 10° NNW 11:10:10 52° W 11:14:28 10° S
CBERS-1 4.1 11:08:46 10° N 11:13:44 56° WNW 11:18:42 10° SSW
ATLAS 5 CENTAUR R/B 3.6 11:08:43 10° NNW 11:13:54 44° ENE 11:20:07 10° SE
H-2A R/B 2.4 11:12:15 10° NNE 11:15:36 85° E 11:18:55 10° S
CZ-3 R/B 3.3 11:01:21 13° WSW 11:20:29 52° S 11:26:57 10° E
In-Cosmos 22 4.4 11:18:02 10° S 11:23:21 73° E 11:28:50 10° NNE
YAOGAN 11 4.1 11:23:37 10° S 11:28:03 72° W 11:32:32 10° NNW
Cosmos 1842 3.9 11:26:25 10° SW 11:29:45 31° W 11:33:07 10° NNW
USA 290 2.0 11:27:52 10° NNW 11:30:54 62° WSW 11:33:56 10° S
COSMO-SKYMED 1 3.9 11:26:55 10° SSE 11:31:02 45° ENE 11:35:11 10° N
BlueWalker 3 1.9 11:30:05 10° NW 11:33:55 83° SW 11:37:43 10° SE
IRS-1C 4.2 11:28:39 10° NNE 11:34:00 89° WNW 11:39:19 10° SSW
H-2A R/B 2.6 11:30:55 10° N 11:35:33 39° WNW 11:40:18 10° SW
Cosmos 1943 Rocket 3.3 11:31:25 10° NW 11:35:40 22° W 11:39:55 10° SSW
